Location: Peterborough
(44.3091°N, 78.3197°W)
Time: 04:34:09
(UTC-04:00)

S-56A Canister/Altair - Pass Details

Date: 25 March 2023
Orbit: 639 x 2492 km, 38.9° (Epoch: 08 June)

Event Time Altitude Azimuth Distance (km) Brightness Sun altitude
Rises 17:48:31 0° 192° (SSW) 4,544 11.8 17.5°
Reaches altitude 10° 17:52:08 10° 177° (S) 3,862 11.3 16.8°
Maximum altitude 17:59:40 23° 131° (SE) 3,479 10.6 15.5°
Drops below altitude 10° 18:08:58 10° 88° (E) 4,894 11.1 13.9°
Sets 18:14:17 0° 76° (ENE) 6,076 11.5 13.0°
